This is the latest recevied weather packets stored in our database for station/object G4GVZ-1. If no packets are shown the sender has not sent any weather packets the latest 10 day(s).
| Time | Temp. | Humidity | Pressure | Rain* | Wind** | Luminosity | Snow |
|---|---|---|---|---|---|---|---|
| 1777629650 | 21.11° C | 55% | 1018.8 hPa | 0 mm | - | - | - |
| 1777628751 | 20.56° C | 55% | 1018.7 hPa | 0 mm | - | - | - |
| 1777627850 | 20° C | 55% | 1018.7 hPa | 0 mm | - | - | - |
| 1777626950 | 19.44° C | 55% | 1018.7 hPa | 0 mm | - | - | - |
| 1777626050 | 18.89° C | 55% | 1018.7 hPa | 0 mm | - | - | - |
| 1777625150 | 18.33° C | 56% | 1018.9 hPa | 0 mm | - | - | - |
| 1777624251 | 17.22° C | 55% | 1018.9 hPa | 0 mm | - | - | - |
| 1777623351 | 16.11° C | 56% | 1019.2 hPa | 0 mm | - | - | - |
| 1777622451 | 15° C | 58% | 1019.1 hPa | 0 mm | - | - | - |
| 1777621551 | 15° C | 57% | 1019.2 hPa | 0 mm | - | - | - |
| 1777620650 | 15.56° C | 55% | 1019 hPa | 0 mm | - | - | - |
| 1777619750 | 15° C | 56% | 1018.8 hPa | 0 mm | - | - | - |
| 1777618850 | 14.44° C | 56% | 1018.5 hPa | 0 mm | - | - | - |
| 1777617948 | 15° C | 55% | 1018.6 hPa | 0 mm | - | - | - |
| 1777617048 | 14.44° C | 54% | 1018.7 hPa | 0 mm | - | - | - |
| 1777616148 | 14.44° C | 56% | 1018.6 hPa | 0 mm | - | - | - |
| 1777615247 | 13.33° C | 57% | 1018.3 hPa | 0 mm | - | - | - |
| 1777614347 | 12.78° C | 59% | 1018.2 hPa | 0 mm | - | - | - |
| 1777613502 | 12.22° C | 59% | 1018.2 hPa | 0 mm | - | - | - |
| 1777613447 | 12.22° C | 59% | 1018.2 hPa | 0 mm | - | - | - |
| 1777612547 | 12.22° C | 60% | 1018.3 hPa | 0 mm | - | - | - |
| 1777611646 | 11.67° C | 60% | 1018.2 hPa | 0 mm | - | - | - |
| 1777610748 | 11.67° C | 60% | 1018.3 hPa | 0 mm | - | - | - |
| 1777610440 | 11.67° C | 61% | 1018.1 hPa | 0 mm | - | - | - |
| 1777609848 | 11.67° C | 61% | 1018.1 hPa | 0 mm | - | - | - |
* Rain latest hour (hover to see other rain measurements)
** Current wind speed in m/s (hover to see current wind gust speed)